Date,TemperatureHighF,TemperatureAvgF,TemperatureLowF,DewpointHighF,DewpointAvgF,DewpointLowF,HumidityHigh,HumidityAvg,HumidityLow,PressureMaxIn,PressureMinIn,WindSpeedMaxMPH,WindSpeedAvgMPH,GustSpeedMaxMPH,PrecipitationSumIn
2013-1-1,47.7,41.6,34.9,46.3,38.2,33.1,95,88,72,30.05,29.51,5,1,16,0.00
2013-1-2,50.5,42.0,31.6,49.3,40.8,30.6,98,95,90,30.32,30.05,2,0,6,0.02
2013-1-3,54.7,50.4,46.2,51.0,48.5,45.4,98,93,87,30.61,30.32,2,1,9,0.00
2013-1-4,50.7,48.9,46.0,47.4,45.4,43.5,94,88,81,30.64,30.59,5,1,13,0.00
2013-1-5,51.1,48.2,43.9,49.2,46.5,42.7,97,94,89,30.59,30.51,3,1,10,0.01
2013-1-6,47.5,44.5,40.1,45.9,43.6,39.3,98,96,92,30.51,30.39,3,0,8,0.01
2013-1-7,47.7,45.5,44.1,45.9,44.2,43.0,97,95,93,30.39,30.25,2,0,8,0.02
2013-1-8,51.1,48.6,46.9,47.6,46.4,44.6,97,92,87,30.27,30.18,2,1,9,0.07
2013-1-9,48.6,44.8,33.8,48.0,43.6,33.0,98,96,88,30.18,30.05,3,1,7,0.13
2013-1-10,41.7,38.8,34.2,39.8,37.6,33.4,98,95,91,30.05,29.90,2,0,8,0.01
2013-1-11,44.2,37.8,32.0,40.3,36.0,32.6,97,93,81,30.07,29.95,1,0,5,0.01
2013-1-12,39.7,37.7,35.2,38.7,36.0,34.1,97,94,88,29.95,29.80,9,4,17,0.24
2013-1-13,37.8,35.7,31.6,36.0,31.3,28.3,95,84,71,30.11,29.91,5,2,11,0.00
2013-1-14,38.7,33.8,30.7,37.6,32.1,28.4,97,94,89,30.08,29.62,4,0,13,0.25
2013-1-15,37.8,33.1,25.9,32.6,30.2,24.9,96,89,81,29.85,29.61,7,2,17,0.00
2013-1-16,35.8,28.4,23.5,31.3,26.9,22.6,97,94,82,30.00,29.80,2,1,6,0.00
2013-1-17,37.9,31.1,22.3,32.5,27.5,21.3,97,87,72,30.07,29.86,4,1,8,0.01
2013-1-18,34.9,31.0,28.4,29.5,28.2,26.5,95,89,76,29.86,29.39,8,4,16,0.00
2013-1-19,33.1,31.4,30.4,30.5,28.8,26.7,94,90,84,29.43,29.36,6,3,15,0.00
2013-1-20,31.6,30.4,28.9,30.4,28.5,26.7,96,92,84,29.42,29.27,6,2,14,0.00
2013-1-21,33.4,30.9,25.2,30.4,28.8,23.7,95,92,84,29.49,29.26,0,0,2,0.00
2013-1-22,36.3,30.0,21.0,34.3,28.4,19.6,96,94,87,29.64,29.49,6,2,13,0.20
2013-1-23,35.1,34.4,33.8,32.8,31.5,30.1,94,89,86,29.77,29.64,5,2,10,0.13
2013-1-24,34.5,33.2,31.8,31.5,30.6,28.9,95,90,82,30.12,29.77,3,1,8,0.01
2013-1-25,38.1,34.5,31.8,35.9,31.2,28.5,94,88,80,30.10,29.56,4,1,17,0.06
2013-1-26,46.0,41.6,35.8,43.6,39.1,34.2,97,91,77,29.84,29.56,5,2,18,0.19
2013-1-27,50.0,46.1,39.0,48.4,41.4,35.4,96,84,60,29.63,29.30,7,3,19,0.28
2013-1-28,52.0,43.6,34.9,48.8,40.9,33.1,95,90,83,29.84,29.56,9,3,21,0.00
2013-1-29,54.3,52.2,49.1,52.9,50.7,47.6,97,95,87,29.68,29.59,9,4,23,0.09
2013-1-30,53.6,49.6,44.2,52.0,43.7,36.8,97,81,56,30.06,29.52,9,5,24,0.06
2013-1-31,52.3,47.9,44.2,45.9,41.1,36.7,94,78,57,30.06,29.81,10,4,29,0.02
2013-2-1,46.8,41.7,35.4,43.7,39.2,33.8,96,91,80,29.86,29.45,4,1,11,0.20
2013-2-2,42.1,37.9,29.5,37.1,31.5,25.8,94,78,64,30.24,29.57,7,3,20,0.00
2013-2-3,49.1,39.8,27.9,46.3,36.9,24.8,93,89,84,30.25,29.91,4,1,14,0.00
2013-2-4,52.2,47.9,42.6,47.0,40.3,34.2,91,76,56,29.95,29.75,6,4,22,0.00
2013-2-5,43.3,39.8,35.1,38.3,32.5,26.0,89,76,52,29.74,29.35,10,4,22,0.00
2013-2-6,42.8,39.8,35.4,38.2,33.5,27.5,91,78,68,30.04,29.35,10,4,26,0.06
2013-2-7,42.4,36.9,31.8,34.7,30.3,25.9,92,77,61,30.10,29.98,4,1,12,0.00
2013-2-8,42.4,36.9,31.3,34.9,32.0,29.3,94,83,60,30.12,30.00,4,1,11,0.00
2013-2-9,38.5,36.3,33.6,37.4,33.9,30.9,96,91,81,30.13,29.84,6,0,13,0.10
2013-2-10,41.2,39.1,36.3,39.9,37.8,34.6,97,95,93,29.84,29.23,7,3,20,0.71
2013-2-11,37.2,34.4,33.1,35.9,33.1,32.0,96,95,93,29.74,29.24,6,2,11,0.13
2013-2-12,36.0,34.5,33.3,33.0,30.4,28.0,94,85,74,30.12,29.74,4,2,9,0.00
2013-2-13,39.6,35.0,32.7,38.2,30.3,24.7,95,83,70,30.19,30.00,5,2,13,0.02
2013-2-14,52.5,45.3,38.5,47.1,42.2,36.7,97,90,69,30.00,29.75,4,2,16,0.19
2013-2-15,49.5,39.6,30.7,41.1,35.6,29.7,98,87,57,30.19,29.97,3,0,10,0.01
2013-2-16,51.3,41.0,31.6,41.2,37.0,30.5,96,87,58,30.23,30.18,1,0,5,0.00
2013-2-17,49.1,38.6,29.8,41.6,33.0,28.8,98,83,48,30.19,30.07,7,2,16,0.01
2013-2-18,47.7,38.2,30.2,36.8,32.7,29.2,97,82,57,30.12,30.07,7,2,13,0.01
2013-2-19,51.3,36.8,27.1,38.9,32.0,26.2,97,84,54,30.11,30.02,1,0,5,0.00
2013-2-20,42.4,36.8,31.6,38.1,32.0,26.2,97,83,63,30.23,30.07,6,3,14,0.02
2013-2-21,37.8,33.5,30.4,26.6,23.0,20.2,76,65,53,30.22,30.13,7,4,17,0.00
2013-2-22,34.3,32.5,31.5,28.1,24.9,21.1,86,74,63,30.12,30.05,6,3,14,0.00
2013-2-23,35.1,32.9,31.5,27.6,24.8,21.3,81,72,61,30.17,30.04,6,3,15,0.00
2013-2-24,35.4,33.8,32.5,28.4,27.2,25.7,84,77,70,30.24,30.15,5,3,13,0.00
2013-2-25,39.0,36.9,33.1,35.3,33.0,28.0,90,86,78,30.33,30.21,8,4,18,0.00
2013-2-26,40.6,38.5,36.5,37.5,36.2,33.8,95,92,87,30.52,30.32,7,3,15,0.01
2013-2-27,41.9,37.7,35.4,36.6,34.1,32.5,94,87,73,30.52,30.44,6,3,15,0.00
2013-2-28,43.0,39.1,36.7,36.9,34.7,32.6,89,84,79,30.44,30.30,6,3,16,0.00
2013-3-1,43.9,39.4,36.1,40.0,34.7,30.4,95,83,70,30.37,30.32,6,2,14,0.02
2013-3-2,41.5,36.4,29.8,32.5,30.5,27.4,92,79,69,30.37,30.25,4,1,10,0.00
2013-3-3,45.1,38.1,30.9,37.2,33.3,28.6,92,83,71,30.27,30.07,7,2,15,0.00
2013-3-4,52.7,38.8,29.3,37.0,33.1,28.2,96,81,49,30.07,29.72,6,2,11,0.00
2013-3-5,59.4,44.9,31.3,44.2,37.5,29.9,98,77,54,29.72,29.55,5,1,8,0.01
2013-3-6,57.9,50.1,41.7,46.6,43.0,37.5,91,77,62,29.55,29.47,5,1,9,0.02
2013-3-7,52.2,48.6,46.4,49.1,47.1,44.8,96,94,87,29.48,29.34,4,1,10,0.18
2013-3-8,49.8,48.7,47.5,49.0,47.9,46.7,98,97,96,29.52,29.34,2,0,5,0.64
2013-3-9,49.3,45.5,39.2,47.1,43.9,35.2,98,94,86,29.63,29.50,3,1,8,0.02
2013-3-10,39.0,36.5,33.4,35.5,32.4,28.6,88,85,81,29.69,29.61,6,4,18,0.00
2013-3-11,33.4,29.9,27.5,30.1,26.8,24.1,95,88,83,29.69,29.65,10,6,22,0.00
2013-3-12,38.3,32.5,27.5,31.4,24.0,19.2,89,72,51,29.79,29.65,10,6,25,0.00
2013-3-13,43.7,36.5,28.8,31.7,29.0,24.9,93,75,50,29.92,29.76,6,2,15,0.00
2013-3-14,45.5,35.3,25.3,31.3,26.9,22.7,96,74,45,30.00,29.92,3,1,11,0.01
2013-3-15,44.8,41.3,34.0,41.4,38.0,28.8,92,88,81,29.92,29.57,5,2,17,0.09
2013-3-16,44.8,43.1,40.1,42.3,40.4,36.7,95,90,86,29.57,29.29,6,4,23,0.28
2013-3-17,43.9,39.9,30.9,41.2,37.9,29.8,96,93,88,29.32,29.13,3,1,11,0.65
2013-3-18,43.7,37.1,29.8,42.2,35.9,28.8,98,95,88,29.33,29.19,3,0,9,0.56
2013-3-19,49.8,40.6,34.0,41.0,37.0,32.7,96,88,66,29.47,29.33,4,1,9,0.00
2013-3-20,45.3,39.2,34.2,37.5,35.1,32.3,95,86,68,29.98,29.47,4,2,10,0.00
2013-3-21,43.7,39.0,34.2,36.5,34.2,31.2,91,83,70,29.99,29.87,9,4,17,0.12
2013-3-22,46.9,40.1,36.3,38.9,35.7,33.6,93,85,66,29.87,29.67,8,5,17,0.11
2013-3-23,39.0,35.3,33.4,35.8,33.4,32.2,95,93,86,29.82,29.69,5,3,13,0.39
2013-3-24,34.9,33.0,31.6,32.4,28.2,22.7,93,83,61,29.89,29.80,7,4,18,0.00
2013-3-25,34.9,33.9,33.3,26.7,25.5,23.2,75,71,62,29.92,29.87,7,4,15,0.00
2013-3-26,35.2,33.6,31.8,28.3,26.0,24.7,80,73,68,29.89,29.83,6,3,14,0.00
2013-3-27,41.7,35.5,30.6,28.7,26.1,23.9,78,69,52,29.85,29.80,6,3,18,0.00
2013-3-28,39.7,34.8,29.1,30.2,25.9,21.0,90,70,54,29.92,29.81,6,2,12,0.00
2013-3-29,42.3,34.5,27.0,29.7,25.4,21.3,90,70,47,29.89,29.75,7,2,16,0.00
2013-3-30,41.4,35.3,28.0,31.8,28.9,26.0,93,78,61,29.94,29.74,5,2,16,0.00
2013-3-31,41.2,34.1,25.7,30.5,26.6,23.2,95,75,54,29.95,29.86,6,2,14,0.00
2013-4-1,43.0,36.7,32.7,29.3,27.1,23.9,83,69,49,29.86,29.78,10,4,22,0.00
2013-4-2,45.0,37.7,30.6,32.1,25.9,17.1,89,65,33,30.02,29.83,9,4,20,0.00
2013-4-3,38.3,35.1,30.6,30.4,27.1,23.6,90,73,63,30.02,29.94,8,4,18,0.00
2013-4-4,36.9,34.9,32.9,32.9,29.5,26.0,89,81,66,29.94,29.85,8,4,18,0.00
2013-4-5,43.0,38.0,34.3,33.2,28.9,23.4,84,70,53,30.07,29.84,9,5,22,0.00
2013-4-6,49.6,39.6,32.0,31.3,29.5,26.6,89,69,42,30.27,30.07,5,2,12,0.00
2013-4-7,50.4,38.9,25.5,32.8,27.3,22.9,94,66,37,30.27,29.84,7,1,14,0.00
2013-4-8,51.3,43.5,38.1,34.5,31.5,27.1,79,64,41,29.84,29.51,7,4,16,0.00
2013-4-9,45.9,42.0,37.8,42.0,38.8,33.5,94,88,79,29.51,29.33,6,2,12,0.17
2013-4-10,49.6,43.1,37.4,42.9,40.1,35.6,95,89,73,29.70,29.37,6,2,11,0.25
2013-4-11,56.5,48.1,43.2,48.0,44.9,42.1,97,89,72,29.47,29.31,5,1,10,0.06
2013-4-12,54.0,47.9,43.7,47.6,44.4,40.0,95,88,74,29.75,29.29,6,2,17,0.46
2013-4-13,51.8,47.2,40.3,50.0,45.1,38.1,96,92,81,29.91,29.75,5,2,15,0.25
2013-4-14,66.9,57.1,50.5,52.4,49.5,47.0,97,77,58,29.96,29.89,5,3,16,0.00
2013-4-15,59.4,53.5,46.4,49.9,47.4,43.3,89,80,68,30.07,29.94,5,2,15,0.00
2013-4-16,60.3,52.6,46.6,50.1,46.7,43.0,94,81,54,30.08,29.91,6,3,20,0.00
2013-4-17,66.6,55.5,48.6,53.2,49.9,45.8,97,83,57,30.09,29.79,6,2,18,0.04
2013-4-18,57.7,50.6,44.8,47.3,42.6,37.2,85,74,58,30.09,29.82,8,5,22,0.05
2013-4-19,57.2,49.0,42.3,43.7,39.0,31.8,88,70,40,30.47,30.09,6,2,13,0.00
2013-4-20,56.1,45.2,33.6,38.8,33.3,27.6,95,67,35,30.52,30.34,6,2,12,0.00
2013-4-21,60.4,45.0,29.3,40.7,35.0,27.5,95,71,36,30.34,30.03,5,1,15,0.00
2013-4-22,58.5,50.5,41.9,47.3,44.1,39.5,93,80,56,30.03,29.96,6,2,15,0.00
2013-4-23,71.6,58.4,48.9,52.2,48.3,45.0,95,72,41,30.20,29.98,3,1,10,0.00
2013-4-24,62.8,53.0,44.2,52.8,48.3,42.5,96,85,67,30.25,30.18,3,1,10,0.00
2013-4-25,71.2,58.0,47.7,55.7,50.1,46.0,95,77,51,30.24,30.01,3,1,12,0.00
2013-4-26,55.2,48.1,40.1,47.9,39.9,32.0,93,74,44,30.01,29.89,7,2,16,0.09
2013-4-27,53.8,43.0,33.4,37.8,34.9,30.8,93,74,43,30.08,29.87,8,2,17,0.00
2013-4-28,54.9,45.1,30.4,41.3,35.2,28.9,95,70,42,30.08,29.92,4,1,13,0.00
2013-4-29,59.4,50.6,40.6,43.7,37.9,33.2,92,65,40,30.15,29.88,4,2,16,0.01
2013-4-30,58.5,48.2,37.2,38.2,35.6,31.1,88,64,38,30.27,30.15,7,3,15,0.00
2013-5-1,61.7,49.7,38.8,43.0,36.9,28.5,90,65,35,30.27,30.12,5,3,13,0.00
2013-5-2,63.0,51.3,39.9,36.3,30.3,20.2,73,46,26,30.18,30.13,6,2,14,0.00
2013-5-3,68.7,53.6,34.3,46.6,38.9,31.6,91,62,30,30.16,30.02,4,1,12,0.00
2013-5-4,61.0,52.2,43.9,50.0,43.0,36.1,90,72,41,30.12,29.99,6,2,17,0.02
2013-5-5,65.7,55.3,41.7,51.2,46.0,38.2,90,72,55,30.19,30.12,3,1,8,0.00
2013-5-6,70.3,58.3,46.9,52.6,46.6,42.9,91,68,42,30.16,30.04,2,0,8,0.00
2013-5-7,74.1,58.3,40.6,48.9,44.9,38.5,93,65,35,30.06,29.84,4,1,10,0.00
2013-5-8,59.5,55.1,48.6,54.3,50.0,44.4,95,84,67,29.83,29.69,5,2,13,0.19
2013-5-9,56.8,50.1,43.2,47.3,44.1,39.7,95,81,53,29.84,29.70,9,4,23,0.02
2013-5-10,62.8,53.8,48.0,48.9,47.1,43.7,92,79,53,29.93,29.70,5,3,17,0.01
2013-5-11,58.5,49.5,41.2,50.6,44.6,39.0,94,84,61,29.91,29.81,6,2,15,0.50
2013-5-12,59.0,49.2,38.8,49.9,42.9,37.3,95,81,47,30.01,29.91,6,2,17,0.06
2013-5-13,58.5,52.4,46.2,49.7,44.2,37.2,95,75,48,29.92,29.82,7,3,20,0.02
2013-5-14,50.9,47.6,44.2,47.3,43.3,39.8,94,85,73,29.82,29.22,7,2,21,0.41
2013-5-15,58.3,47.9,41.9,45.4,42.0,38.7,94,80,56,29.54,29.18,7,3,22,0.09
2013-5-16,60.6,48.7,36.1,48.5,39.8,35.1,97,75,42,29.54,29.46,3,1,11,0.00
2013-5-17,54.9,48.7,39.9,45.0,42.6,38.3,96,80,65,29.79,29.54,4,1,10,0.00
2013-5-18,62.4,52.3,43.5,47.0,44.4,41.4,94,76,51,29.78,29.70,3,1,10,0.00
2013-5-19,65.8,55.6,48.6,49.7,47.2,44.8,90,75,53,29.88,29.75,4,1,12,0.00
2013-5-20,61.7,55.6,47.3,57.1,52.2,44.8,94,88,82,29.87,29.81,4,1,11,0.04
2013-5-21,61.2,56.4,51.1,55.9,50.9,47.3,90,82,71,30.04,29.86,5,2,14,0.00
2013-5-22,59.7,53.1,46.8,49.2,45.3,36.0,92,76,53,30.08,30.00,4,1,12,0.00
2013-5-23,54.0,46.8,40.8,40.9,36.9,31.6,88,69,44,30.00,29.86,7,2,17,0.04
2013-5-24,47.7,43.6,39.7,45.1,40.1,35.9,92,88,77,29.97,29.63,5,2,16,0.27
2013-5-25,59.9,49.8,41.5,43.0,40.1,35.5,95,72,44,30.14,29.97,5,2,11,0.13
2013-5-26,68.0,54.0,37.9,43.9,38.8,34.3,94,61,35,30.12,29.95,4,1,13,0.00
2013-5-27,63.5,53.1,37.0,46.0,41.7,34.7,94,67,41,29.95,29.60,4,2,13,0.00
2013-5-28,54.3,50.5,48.4,50.9,47.5,43.4,95,89,72,29.60,29.46,2,0,7,0.65
2013-5-29,58.5,51.1,41.7,51.4,47.3,40.4,96,88,64,29.74,29.54,2,1,9,0.09
2013-5-30,61.2,54.0,49.5,54.0,51.1,47.8,95,90,74,29.96,29.72,4,1,12,0.17
2013-5-31,70.9,60.1,51.3,55.5,51.8,48.0,90,75,54,30.08,29.96,4,2,11,0.00
2013-6-1,65.7,58.1,50.2,50.9,46.1,42.0,85,65,48,30.27,30.08,4,2,13,0.00
2013-6-2,65.5,56.6,46.0,47.0,43.3,40.7,89,63,41,30.41,30.27,3,1,8,0.00
2013-6-3,64.8,54.4,41.2,46.9,43.5,39.3,95,69,46,30.45,30.37,4,2,11,0.00
2013-6-4,68.2,56.0,41.4,50.1,44.0,38.6,91,67,43,30.40,30.17,5,2,14,0.00
2013-6-5,69.3,57.4,45.7,51.3,46.2,42.6,89,68,39,30.18,30.05,4,2,10,0.00
2013-6-6,70.0,58.3,47.3,52.7,46.7,40.5,91,68,43,30.14,30.09,5,3,13,0.00
2013-6-7,67.6,57.8,51.6,55.9,49.2,43.9,91,74,54,30.18,30.12,5,3,16,0.43
2013-6-8,64.2,55.4,46.9,49.2,46.3,43.4,88,72,55,30.17,30.01,7,4,15,0.00
2013-6-9,59.2,53.6,50.4,47.8,45.7,44.1,82,75,64,30.03,29.93,5,3,17,0.00
2013-6-10,61.5,53.9,45.3,49.3,45.4,42.0,88,73,63,29.98,29.94,2,1,7,0.00
2013-6-11,61.0,55.1,44.8,58.6,52.5,41.7,95,91,87,29.95,29.89,3,1,9,0.09
2013-6-12,61.3,58.3,55.9,59.7,56.4,54.0,96,93,87,29.91,29.82,4,2,14,0.24
2013-6-13,63.7,57.1,51.3,55.0,51.6,47.1,94,83,61,30.04,29.80,7,3,19,0.00
2013-6-14,65.5,56.1,45.0,52.3,48.5,42.7,96,77,46,30.06,29.79,4,1,12,0.00
2013-6-15,61.5,56.4,49.8,53.2,49.7,47.3,94,79,63,29.89,29.69,7,3,20,0.15
2013-6-16,64.6,57.6,52.2,53.0,49.6,45.9,90,76,53,29.94,29.88,3,1,8,0.01
2013-6-17,70.5,61.2,53.2,55.6,51.8,49.1,87,72,54,29.94,29.85,6,3,15,0.01
2013-6-18,72.0,62.9,55.2,63.8,57.3,52.3,92,82,72,29.95,29.86,2,1,8,0.00
2013-6-19,81.1,67.4,57.0,63.8,59.8,55.0,95,78,54,29.96,29.87,3,1,6,0.02
2013-6-20,67.5,63.4,57.6,61.1,59.0,54.6,91,86,76,29.92,29.78,3,1,8,0.00
2013-6-21,70.3,61.4,55.9,60.9,56.5,52.9,95,84,68,29.88,29.76,3,1,10,0.00
2013-6-22,63.9,56.9,52.3,56.2,52.4,50.1,95,85,70,29.88,29.68,7,4,21,0.05
2013-6-23,63.9,58.2,52.9,53.9,51.9,50.1,93,80,64,30.02,29.67,7,3,21,0.02
2013-6-24,62.4,56.0,48.6,50.8,47.3,44.0,92,74,55,30.28,30.02,4,1,13,0.00
2013-6-25,70.5,59.3,48.2,50.9,47.5,44.9,95,68,42,30.40,30.27,3,1,9,0.00
2013-6-26,71.1,60.2,44.8,53.6,49.1,42.9,94,69,42,30.41,30.33,3,1,10,0.00
2013-6-27,69.3,59.9,49.3,53.8,49.7,45.8,92,71,47,30.35,30.16,3,1,12,0.02
2013-6-28,70.9,61.6,53.8,63.7,57.4,51.5,96,86,72,30.16,30.03,4,1,14,0.05
2013-6-29,73.8,63.8,55.9,57.3,51.2,46.1,93,66,43,30.23,30.06,4,1,16,0.00
2013-6-30,75.9,66.5,54.5,61.7,57.7,52.4,94,75,56,30.23,30.06,5,1,13,0.00
2013-7-1,71.8,62.7,54.0,56.1,52.5,50.5,91,71,50,30.07,29.97,4,1,11,0.00
2013-7-2,63.9,57.5,50.4,55.1,52.2,48.1,93,83,67,29.98,29.66,3,1,12,0.02
2013-7-3,69.8,61.8,56.1,59.5,56.3,52.3,96,83,64,30.00,29.60,5,2,13,0.09
2013-7-4,74.3,62.2,50.5,62.9,56.9,48.6,94,83,66,30.24,30.00,3,1,11,0.00
2013-7-5,77.9,63.6,48.7,61.9,54.6,47.4,96,75,51,30.39,30.25,3,1,8,0.00
2013-7-6,81.3,66.3,50.2,61.8,55.7,48.2,94,71,43,30.39,30.32,2,0,7,0.00
2013-7-7,81.7,70.0,55.9,62.2,58.0,51.5,95,68,49,30.47,30.39,4,1,12,0.00
2013-7-8,77.9,67.3,55.6,59.1,54.9,51.0,88,67,40,30.48,30.39,5,2,13,0.00
2013-7-9,78.4,66.4,54.9,53.9,50.0,42.0,85,59,30,30.40,30.22,4,2,12,0.00
2013-7-10,75.7,64.0,51.6,58.7,53.3,46.5,85,69,51,30.25,30.18,5,2,12,0.00
2013-7-11,72.1,60.6,52.5,53.3,48.8,45.0,85,66,45,30.26,30.18,4,2,12,0.00
2013-7-12,75.6,61.0,50.5,59.5,53.2,47.8,91,77,52,30.27,30.19,2,1,8,0.00
2013-7-13,87.1,68.8,53.2,66.8,58.8,50.8,94,73,45,30.24,30.18,3,1,9,0.00
2013-7-14,86.9,72.7,57.4,65.6,60.1,54.8,92,68,39,30.23,30.14,4,1,12,0.00
2013-7-15,86.4,73.2,59.5,62.1,56.8,48.9,92,60,32,30.20,30.16,3,1,13,0.00
2013-7-16,86.0,72.8,57.9,62.8,58.0,54.7,89,63,40,30.19,30.15,2,0,10,0.00
2013-7-17,87.3,72.4,56.8,60.2,56.9,53.3,89,61,38,30.25,30.18,3,0,8,0.00
2013-7-18,83.1,71.0,60.3,62.1,58.1,55.6,87,66,43,30.27,30.22,5,2,11,0.00
2013-7-19,79.9,69.0,56.1,59.5,56.0,50.7,83,65,45,30.27,30.16,5,2,14,0.00
2013-7-20,72.3,65.5,59.4,60.3,58.5,54.6,91,79,64,30.21,30.11,5,2,13,0.00
2013-7-21,80.8,69.3,58.6,64.8,60.1,54.4,89,74,55,30.13,29.99,4,2,10,0.00
2013-7-22,90.9,75.7,63.0,65.8,61.7,59.0,88,65,37,30.02,29.92,2,1,9,0.00
2013-7-23,84.7,72.5,62.6,66.3,62.2,56.1,85,71,52,29.93,29.87,2,1,7,0.00
2013-7-24,79.0,67.4,56.7,62.1,58.5,54.4,93,75,50,29.96,29.91,3,1,11,0.00
2013-7-25,76.3,67.4,59.7,65.3,60.6,56.8,95,80,55,29.92,29.87,4,1,12,0.12
2013-7-26,80.4,68.8,57.6,60.7,57.4,53.0,96,71,44,29.91,29.83,3,0,9,0.00
2013-7-27,80.8,65.1,53.8,65.6,57.3,50.6,94,78,42,29.83,29.55,15,3,15,0.40
2013-7-28,73.7,65.9,58.5,60.6,58.6,56.5,95,78,60,29.76,29.59,13,8,13,0.01
2013-7-29,71.7,65.4,60.3,61.3,58.8,56.9,93,80,62,29.96,29.77,16,9,16,0.02
2013-7-30,69.3,64.6,59.6,63.7,61.6,56.7,95,90,81,29.96,29.84,5,2,11,0.24
2013-7-31,73.6,65.7,59.5,65.4,61.7,58.1,96,87,74,29.99,29.93,4,1,14,0.01
2013-8-1,90.3,74.5,58.6,68.7,63.0,57.5,97,71,41,29.93,29.66,4,1,14,0.00
2013-8-2,76.8,67.2,60.6,64.5,60.5,57.3,92,80,54,29.82,29.70,3,1,13,0.06
2013-8-3,73.8,65.3,58.3,59.1,57.2,54.5,94,77,56,30.09,29.80,5,2,16,0.06
2013-8-4,73.6,65.5,58.1,59.1,56.8,54.0,94,75,52,30.10,30.01,5,1,13,0.00
2013-8-5,72.9,65.6,61.3,62.2,58.8,54.2,91,79,56,30.01,29.73,4,1,12,0.11
2013-8-6,75.6,63.3,50.0,58.4,52.6,48.4,97,71,41,30.01,29.89,2,0,7,0.00
2013-8-7,72.7,62.6,52.3,57.0,51.9,49.1,94,71,45,30.01,29.86,5,1,13,0.00
2013-8-8,75.7,63.0,48.6,58.8,53.0,46.9,96,72,40,30.11,30.01,3,1,8,0.00
2013-8-9,76.8,66.7,59.7,62.8,55.2,49.1,94,69,42,30.15,30.02,5,1,15,0.03
2013-8-10,73.8,63.2,52.0,56.3,50.5,45.5,86,65,39,30.18,30.12,4,1,11,0.00
2013-8-11,74.7,65.0,58.1,58.9,53.8,48.3,89,69,45,30.12,29.98,6,2,17,0.00
2013-8-12,71.6,60.8,50.9,54.4,48.3,43.9,90,66,40,30.07,29.97,5,1,15,0.00
2013-8-13,70.5,58.7,46.6,54.8,49.2,44.1,93,73,43,30.19,30.07,4,1,12,0.00
2013-8-14,72.0,61.0,47.7,60.0,53.8,46.0,95,79,55,30.20,30.13,3,1,10,0.03
2013-8-15,76.3,67.0,60.8,62.9,60.7,58.0,96,81,58,30.13,30.01,6,2,17,0.02
2013-8-16,69.3,63.4,59.2,64.0,60.4,57.7,96,90,81,30.01,29.93,3,1,9,0.03
2013-8-17,68.2,61.3,54.7,59.9,57.4,53.8,97,88,68,29.98,29.74,5,2,17,0.04
2013-8-18,72.7,64.3,58.5,61.3,58.6,56.3,96,83,59,29.89,29.72,4,1,14,0.10
2013-8-19,75.0,63.1,52.0,56.4,51.8,49.1,95,69,43,30.28,29.89,4,1,15,0.00
2013-8-20,76.5,62.5,48.4,55.7,51.0,46.4,94,69,44,30.34,30.28,2,0,9,0.00
2013-8-21,77.7,63.7,48.0,57.8,52.9,46.1,94,71,45,30.29,30.12,3,1,9,0.00
2013-8-22,72.7,64.8,59.0,64.6,59.9,55.1,96,85,69,30.13,30.01,3,1,7,0.22
2013-8-23,81.3,68.8,57.9,62.2,58.4,53.5,96,72,44,30.01,29.81,4,1,13,0.00
2013-8-24,65.5,62.0,57.7,62.1,59.5,55.0,95,92,82,29.84,29.78,3,1,14,0.33
2013-8-25,72.7,61.9,53.6,62.5,56.7,51.2,95,84,61,30.00,29.80,6,2,14,0.11
2013-8-26,77.2,65.9,55.0,61.7,55.9,50.4,95,73,42,30.05,29.99,4,2,10,0.00
2013-8-27,74.7,61.2,48.9,57.5,51.6,47.3,96,73,42,30.09,30.01,3,1,8,0.00
2013-8-28,77.0,60.7,46.2,57.5,50.6,44.3,96,73,37,30.19,30.09,2,0,6,0.00
2013-8-29,75.9,63.2,51.4,58.6,54.0,49.5,94,74,44,30.17,30.11,3,1,10,0.00
2013-8-30,75.6,65.3,54.7,62.0,58.3,52.7,94,79,57,30.13,30.03,3,1,12,0.00
2013-8-31,69.6,62.0,52.3,59.1,49.2,41.4,94,65,39,30.36,30.10,5,1,11,0.00
2013-9-1,69.1,58.0,44.1,50.9,46.6,40.7,90,68,45,30.42,30.32,4,1,12,0.00
2013-9-2,78.4,63.5,48.0,58.9,53.7,45.5,92,73,50,30.33,30.26,3,1,10,0.00
2013-9-3,79.5,65.2,53.6,62.6,57.7,51.0,93,78,56,30.32,30.24,1,0,5,0.00
2013-9-4,81.9,66.6,53.2,63.3,56.6,51.1,94,73,41,30.25,29.96,2,0,11,0.00
2013-9-5,85.6,69.7,55.9,65.3,58.3,52.6,92,70,47,29.96,29.73,3,0,9,0.00
2013-9-6,65.1,58.7,52.0,58.8,53.6,48.7,94,83,65,29.83,29.69,3,0,9,0.29
2013-9-7,65.1,55.8,47.8,55.1,49.8,45.6,95,81,57,30.02,29.81,4,1,15,0.15
2013-9-8,63.0,51.2,42.6,52.8,47.2,41.3,97,87,59,30.06,30.01,4,0,13,0.20
2013-9-9,60.6,52.2,43.5,56.9,50.6,42.2,97,94,86,30.04,29.91,3,0,7,0.11
2013-9-10,62.4,55.0,46.9,51.1,48.4,45.6,95,80,61,30.13,30.02,4,1,15,0.01
2013-9-11,63.1,57.2,53.1,53.6,49.9,46.7,94,77,63,30.14,30.08,4,2,15,0.06
2013-9-12,64.6,58.3,54.0,59.0,55.1,52.7,96,90,75,30.09,30.05,1,0,5,0.06
2013-9-13,69.3,63.2,60.4,64.7,61.2,58.8,97,93,82,30.05,29.85,3,0,9,0.39
2013-9-14,61.2,52.8,47.5,60.0,50.1,45.6,96,91,85,30.04,29.82,4,1,13,0.00
2013-9-15,60.3,51.8,38.5,59.1,48.7,37.4,98,90,67,30.04,29.55,6,2,18,0.12
2013-9-16,60.4,51.4,44.4,50.2,42.7,38.5,91,74,46,29.65,29.56,7,2,19,0.00
2013-9-17,59.7,52.1,43.3,58.6,49.0,40.8,96,89,69,29.64,29.33,5,1,14,0.93
2013-9-18,61.3,54.7,43.9,55.2,48.9,41.3,96,82,59,29.85,29.39,4,1,14,0.15
2013-9-19,61.2,52.2,40.5,60.0,49.7,39.1,96,92,71,29.89,29.72,5,1,16,0.06
2013-9-20,68.4,54.4,42.8,52.9,48.5,42.0,98,82,54,30.17,29.86,3,0,8,0.02
2013-9-21,64.8,56.6,46.2,60.3,53.9,44.9,97,91,79,30.29,30.16,2,0,9,0.00
2013-9-22,67.6,63.1,54.7,61.8,59.9,53.3,96,89,80,30.34,30.28,1,0,5,0.00
2013-9-23,71.2,60.4,52.9,60.4,56.6,51.7,97,88,68,30.31,30.08,2,0,6,0.00
2013-9-24,74.7,59.3,49.6,62.0,55.5,48.5,98,88,62,30.08,29.90,1,0,6,0.01
2013-9-25,74.5,61.3,53.8,61.9,57.6,52.7,98,89,61,29.90,29.79,2,0,6,0.09
2013-9-26,64.0,59.2,51.4,59.6,54.8,49.2,97,86,67,30.02,29.86,3,1,8,0.00
2013-9-27,63.1,54.8,48.2,53.2,50.3,46.8,96,85,68,30.02,29.87,4,1,11,0.01
2013-9-28,67.3,58.5,53.2,57.4,53.6,51.0,93,84,69,29.87,29.67,4,2,13,0.02
2013-9-29,63.9,58.2,55.0,55.8,53.1,51.4,88,83,73,29.70,29.65,5,2,14,0.01
2013-9-30,67.1,58.7,54.3,56.2,53.4,50.2,92,83,56,29.74,29.63,5,1,9,0.00
2013-10-1,61.2,57.2,51.6,57.3,52.9,49.5,93,86,77,29.77,29.70,5,2,13,0.00
2013-10-2,68.9,60.9,56.8,62.1,57.6,53.0,95,89,75,29.85,29.74,4,2,13,0.01
2013-10-3,64.9,61.2,58.3,63.4,59.5,56.3,97,94,90,29.84,29.68,6,2,13,0.28
2013-10-4,66.9,62.4,55.8,62.9,59.3,54.3,96,90,74,29.92,29.67,5,2,17,0.04
2013-10-5,65.7,58.7,52.0,58.8,55.9,50.9,97,91,74,30.22,29.92,1,0,4,0.00
2013-10-6,67.6,54.3,44.4,56.5,50.1,43.6,98,87,60,30.27,30.22,2,0,7,0.01
2013-10-7,68.2,57.2,45.9,57.6,53.6,44.8,98,89,67,30.28,30.22,2,0,7,0.01
2013-10-8,69.4,61.6,55.0,59.0,57.1,53.3,97,86,66,30.26,30.21,3,1,9,0.00
2013-10-9,64.0,55.6,45.7,57.5,50.1,38.5,97,82,65,30.21,29.96,4,1,14,0.00
2013-10-10,53.2,47.5,43.0,41.9,39.2,37.6,84,73,59,30.08,29.98,6,3,18,0.00
2013-10-11,54.7,50.7,45.3,52.9,47.9,39.6,96,90,75,30.07,29.90,7,4,20,0.85
2013-10-12,56.3,50.3,42.3,52.9,46.6,40.9,96,88,64,30.08,29.89,8,2,21,0.15
2013-10-13,51.6,48.0,41.4,50.8,46.9,40.3,97,96,95,29.99,29.76,4,1,13,0.43
2013-10-14,53.2,47.3,41.9,48.5,45.4,41.1,98,93,82,29.78,29.69,3,1,9,0.09
2013-10-15,57.4,49.0,40.6,49.3,45.7,39.4,96,89,73,29.93,29.73,3,1,10,0.00
2013-10-16,63.1,49.2,38.1,60.1,47.3,37.3,98,93,76,29.94,29.66,4,1,15,0.24
2013-10-17,66.4,57.4,50.4,56.7,53.4,49.3,97,87,67,29.99,29.82,4,1,13,0.01
2013-10-18,64.6,56.0,48.0,58.2,53.5,47.2,98,92,73,29.99,29.74,5,1,17,0.00
2013-10-19,62.2,58.4,54.0,59.7,56.2,52.3,96,92,80,29.74,29.63,3,1,9,0.09
2013-10-20,61.9,57.3,53.2,57.8,54.9,51.3,96,92,86,29.74,29.62,7,2,17,0.12
2013-10-21,63.0,60.0,56.7,58.6,57.1,54.5,97,90,83,29.75,29.60,5,2,16,0.40
2013-10-22,64.6,61.2,59.4,60.2,58.2,56.6,95,90,84,29.59,29.31,4,2,14,0.18
2013-10-23,63.7,56.8,43.5,57.5,52.2,42.2,95,85,61,29.84,29.24,7,3,19,0.18
2013-10-24,61.7,50.5,39.0,55.4,48.1,38.0,98,92,78,29.95,29.78,5,1,13,0.01
2013-10-25,63.7,60.2,56.7,60.3,57.2,54.1,97,90,83,29.78,29.57,5,2,14,0.18
2013-10-26,60.4,58.6,55.9,57.8,56.0,54.4,96,91,87,29.70,29.49,5,3,19,0.40
2013-10-27,59.7,56.1,52.0,56.2,52.2,48.1,96,87,68,29.50,29.20,9,4,23,0.74
2013-10-28,59.5,54.8,47.1,58.7,49.6,43.2,97,83,67,29.59,28.95,12,5,33,0.25
2013-10-29,56.5,47.2,36.9,45.5,41.8,35.3,95,82,57,30.05,29.58,5,1,15,0.00
2013-10-30,56.7,47.1,33.6,51.4,43.5,32.6,98,88,73,30.16,30.05,4,1,16,0.01
2013-10-31,55.8,53.8,51.6,53.3,52.0,50.5,97,94,85,30.07,29.93,4,1,15,0.40
2013-11-1,56.5,53.6,51.4,54.5,52.0,50.3,97,94,89,29.93,29.49,4,1,11,0.15
2013-11-2,58.3,52.4,48.4,53.9,48.1,42.2,97,86,71,29.56,29.41,7,3,20,0.01
2013-11-3,55.2,48.6,43.5,53.8,42.6,38.4,98,80,61,29.59,29.00,8,3,22,0.67
2013-11-4,55.2,44.9,34.9,53.5,41.2,33.9,96,87,66,29.48,28.92,6,2,17,0.27
2013-11-5,54.9,47.6,34.5,50.3,44.2,33.3,98,88,73,29.50,29.23,6,2,20,0.20
2013-11-6,60.6,54.0,48.2,56.6,51.4,44.1,98,91,84,29.53,29.49,6,2,21,0.05
2013-11-7,57.6,50.3,41.2,55.8,46.8,40.1,96,88,69,29.76,29.52,4,1,14,0.01
2013-11-8,54.9,43.9,36.9,49.9,42.4,36.1,98,94,79,29.76,29.55,4,0,11,0.24
2013-11-9,45.1,40.5,33.6,44.6,39.6,32.6,98,97,95,29.76,29.58,2,0,6,0.43
2013-11-10,50.0,40.9,32.0,41.6,37.6,30.8,98,89,62,30.25,29.58,3,1,12,0.05
2013-11-11,55.6,48.8,32.4,55.0,47.6,31.3,98,96,88,30.24,30.13,3,1,12,0.34
2013-11-12,55.4,49.8,39.2,54.8,47.9,37.2,98,93,79,30.49,30.12,4,1,10,0.05
2013-11-13,50.7,40.7,30.7,44.7,38.1,29.8,98,91,74,30.55,30.21,1,0,7,0.01
2013-11-14,50.2,45.4,39.2,46.2,40.3,35.2,95,83,67,30.38,30.10,6,2,19,0.01
2013-11-15,49.5,40.7,34.5,40.8,36.3,32.9,95,84,70,30.50,30.39,5,1,13,0.00
2013-11-16,51.1,39.4,29.3,43.6,37.0,28.1,98,91,75,30.50,30.35,1,0,7,0.00
2013-11-17,48.2,45.9,43.5,45.6,44.1,42.2,96,94,89,30.35,29.99,2,0,5,0.00
2013-11-18,49.8,46.3,42.3,47.0,44.7,40.5,97,94,89,29.99,29.73,2,0,7,0.02
2013-11-19,42.6,37.1,28.6,40.5,32.8,26.3,95,85,67,30.03,29.77,4,1,11,0.00
2013-11-20,45.7,36.2,26.8,43.2,34.3,25.2,96,93,85,30.02,29.39,5,1,17,0.26
2013-11-21,44.4,40.1,34.7,40.0,36.7,33.4,96,88,71,29.89,29.39,10,4,29,0.03
2013-11-22,45.7,40.2,36.5,38.3,35.9,33.6,93,85,74,30.11,29.89,6,3,16,0.00
2013-11-23,46.2,40.9,37.6,39.8,37.9,35.7,94,89,77,30.27,30.10,5,2,10,0.00
2013-11-24,46.4,43.1,37.9,43.1,38.9,35.0,93,85,70,30.52,30.27,4,2,13,0.01
2013-11-25,44.1,41.3,37.8,38.2,37.1,35.1,92,85,77,30.64,30.52,4,2,11,0.00
2013-11-26,45.1,41.0,36.9,37.4,35.8,33.7,90,82,71,30.67,30.55,4,0,9,0.00
2013-11-27,47.1,44.3,41.5,45.5,42.5,37.4,96,93,85,30.55,30.46,1,0,3,0.00
2013-11-28,48.7,47.0,45.5,46.0,45.2,44.3,96,93,89,30.53,30.48,2,0,4,0.00
2013-11-29,50.2,46.5,42.8,44.3,41.6,37.0,95,83,69,30.48,30.15,5,2,16,0.00
2013-11-30,46.8,42.5,34.2,40.7,37.4,32.3,94,82,76,30.43,30.16,6,2,15,0.00
2013-12-1,48.0,39.3,29.7,43.2,37.2,28.2,96,92,83,30.52,30.41,1,0,4,0.00
2013-12-2,48.7,43.8,37.6,42.8,40.5,35.9,94,88,77,30.53,30.41,2,0,8,0.00
2013-12-3,44.1,42.1,39.4,39.1,37.4,35.0,94,83,77,30.41,30.31,1,0,4,0.00
2013-12-4,48.0,40.7,28.6,45.0,36.5,27.3,95,85,67,30.50,30.29,3,0,11,0.00
2013-12-5,50.7,39.1,26.1,45.5,34.3,24.8,97,84,64,30.48,30.04,10,3,29,0.02
2013-12-6,47.7,40.7,32.4,41.2,35.5,29.7,93,82,68,30.37,30.22,4,1,13,0.00
2013-12-7,50.2,45.0,41.5,45.2,42.4,39.8,95,90,81,30.35,30.25,3,0,11,0.00
2013-12-8,52.7,43.9,34.9,46.9,41.5,33.6,97,91,80,30.31,30.23,4,1,13,0.00
2013-12-9,51.3,42.4,34.9,49.0,41.3,33.9,98,96,86,30.39,30.31,1,0,5,0.02
2013-12-10,48.2,37.4,30.0,45.8,36.2,29.3,99,95,87,30.45,30.38,1,0,5,0.02
2013-12-11,47.8,33.9,26.6,44.1,32.7,25.9,98,96,83,30.42,30.29,2,0,7,0.01
2013-12-12,47.8,38.3,27.9,47.3,37.7,26.9,99,97,96,30.29,30.18,1,0,6,0.01
2013-12-13,52.3,49.1,43.5,49.9,47.4,41.6,98,94,82,30.19,30.01,3,1,11,0.13
2013-12-14,51.6,45.0,33.8,49.1,42.6,32.5,98,91,81,30.29,30.07,6,2,16,0.02
2013-12-15,53.8,51.3,45.9,52.1,50.2,44.8,98,96,93,30.16,30.00,6,3,16,0.44
2013-12-16,53.8,51.3,45.3,52.4,49.7,44.2,97,94,88,30.08,29.95,6,3,19,0.29
2013-12-17,47.1,42.5,39.6,46.6,41.2,38.2,98,95,93,30.24,29.95,5,1,11,0.28
2013-12-18,50.4,46.9,41.0,47.9,45.1,40.2,98,94,87,29.96,29.30,7,3,23,0.20
2013-12-19,48.4,42.6,36.1,47.0,39.5,35.1,96,89,70,29.86,29.32,5,1,18,0.31
2013-12-20,50.4,43.0,34.5,45.9,39.8,33.5,96,89,76,30.18,29.86,8,2,22,0.01
2013-12-21,52.5,50.1,47.8,50.5,48.1,43.5,96,93,85,30.08,29.74,9,5,21,0.30
2013-12-22,50.4,45.7,39.6,46.3,41.4,36.0,94,85,70,29.91,29.74,6,2,15,0.27
2013-12-23,51.3,48.0,39.7,50.7,46.1,36.6,98,93,87,29.91,28.91,11,5,26,0.36
2013-12-24,50.9,50.6,50.5,50.4,50.1,50.0,98,98,98,28.91,28.82,11,9,26,0.00
2013-12-26,45.3,43.7,32.0,50.0,42.0,40.1,89,85,83,29.32,29.28,8,6,16,0.00
2013-12-27,51.8,47.9,42.6,50.7,44.1,39.6,96,87,75,29.28,29.03,16,4,25,0.06
2013-12-28,47.1,40.7,33.4,40.7,37.9,32.4,97,90,75,29.69,29.25,3,0,11,0.02
2013-12-29,46.4,37.1,27.9,43.0,35.1,27.1,98,93,79,30.08,29.69,4,1,14,0.02
2013-12-30,49.6,47.2,43.3,47.8,44.9,41.6,95,91,85,30.02,29.69,8,3,24,0.06
2013-12-31,49.8,47.8,40.0,48.0,46.1,38.4,96,94,91,29.85,29.54,14,4,17,0.31
2014-1-1,51.1,48.9,42.3,49.2,47.2,40.4,96,94,89,29.59,29.05,17,6,23,0.31
2014-1-2,50.9,47.8,42.3,48.1,45.0,40.8,95,90,79,29.45,29.06,6,2,18,0.27